Tracking 30995 objects as of 6-Jul-2025
HD Live streaming from Space Station
objects crossing your sky now

STARLINK-2462

Track STARLINK-2462 now!
10-day predictions
STARLINK-2462 is classified as:


NORAD ID: 48121
Int'l Code: 2021-027AF
Perigee: 553.6 km
Apogee: 555.1 km
Inclination: 53.1 °
Period: 95.6 minutes
Semi major axis: 6925 km
RCS: Unknown
Launch date: April 7, 2021
Source: United States (US)
Launch site: AIR FORCE EASTERN TEST RANGE (AFETR)
Your satellite tracking list
Your tracking list is empty




NASA's NSSDC Master Catalog

Two Line Element Set (TLE):
1 48121U 21027AF  25186.30147498  .00001268  00000-0  10402-3 0  9993
2 48121  53.0543 192.1892 0001062  78.0360 282.0748 15.06401778235261
Source of the keplerian elements: AFSPC